| time (UTC) | temp C | wind direction | speed KPH | gust KPH | rain 1hr cm | rain 24hr cm | rain mn cm | humidity % | barometer mb |
| 20260503013058 | 15 | 0 | 0.0 | 1.6 | 0.00 | 0.00 | 0.00 | 43 | 1017.0 |
| 20260503011601 | 15 | 291 | 1.6 | 4.8 | 0.00 | 0.00 | 0.00 | 40 | 1017.1 |
| 20260503010054 | 16 | 264 | 3.2 | 4.8 | 0.00 | 0.00 | 0.00 | 39 | 1017.2 |
| 20260503004614 | 16 | 271 | 3.2 | 4.8 | 0.00 | 0.00 | 0.00 | 40 | 1017.4 |
| 20260503003105 | 16 | 289 | 3.2 | 9.7 | 0.00 | 0.00 | 0.00 | 41 | 1017.5 |
| 20260503001601 | 16 | 288 | 4.8 | 8.0 | 0.00 | 0.00 | 0.00 | 41 | 1017.6 |
| 20260503000105 | 16 | 296 | 3.2 | 11.3 | 0.00 | 0.00 | 0.00 | 41 | 1017.8 |
| 20260502234556 | 16 | 27 | 3.2 | 9.7 | 0.00 | 0.00 | 0.00 | 40 | 1017.8 |
| 20260502233051 | 16 | 0 | 3.2 | 9.7 | 0.00 | 0.00 | 0.00 | 41 | 1017.9 |
| 20260502231552 | 16 | 259 | 8.0 | 12.9 | 0.00 | 0.00 | 0.00 | 40 | 1018.1 |
| 20260502230054 | 16 | 264 | 3.2 | 9.7 | 0.00 | 0.00 | 0.00 | 40 | 1018.1 |
| 20260502224547 | 16 | 337 | 4.8 | 12.9 | 0.00 | 0.00 | 0.00 | 40 | 1018.5 |
| 20260502223047 | 16 | 326 | 6.4 | 11.3 | 0.00 | 0.00 | 0.00 | 42 | 1018.8 |
| 20260502221552 | 16 | 293 | 6.4 | 12.9 | 0.00 | 0.00 | 0.00 | 41 | 1019.1 |
| 20260502220049 | 16 | 285 | 3.2 | 9.7 | 0.00 | 0.00 | 0.00 | 44 | 1019.3 |
| 20260502214551 | 16 | 287 | 6.4 | 9.7 | 0.00 | 0.00 | 0.00 | 41 | 1019.6 |
| 20260502213051 | 15 | 156 | 3.2 | 11.3 | 0.00 | 0.00 | 0.00 | 45 | 1019.6 |
| 20260502211552 | 15 | 299 | 6.4 | 11.3 | 0.00 | 0.00 | 0.00 | 43 | 1019.7 |
| 20260502210049 | 15 | 298 | 4.8 | 11.3 | 0.00 | 0.00 | 0.00 | 43 | 1019.9 |
| 20260502204548 | 14 | 288 | 4.8 | 14.5 | 0.00 | 0.00 | 0.00 | 45 | 1019.9 |
| 20260502203053 | 15 | 27 | 3.2 | 12.9 | 0.00 | 0.00 | 0.00 | 45 | 1020.1 |
| 20260502201552 | 14 | 359 | 6.4 | 16.1 | 0.00 | 0.00 | 0.00 | 45 | 1020.2 |
| 20260502200055 | 15 | 326 | 6.4 | 12.9 | 0.00 | 0.00 | 0.00 | 46 | 1020.4 |
| 20260502194548 | 14 | 293 | 3.2 | 14.5 | 0.00 | 0.00 | 0.00 | 47 | 1020.5 |
| 20260502193048 | 14 | 323 | 4.8 | 17.7 | 0.00 | 0.00 | 0.00 | 46 | 1020.6 |
| 20260502191558 | 14 | 354 | 4.8 | 17.7 | 0.00 | 0.00 | 0.00 | 47 | 1020.9 |
| 20260502190052 | 13 | 5 | 4.8 | 12.9 | 0.00 | 0.00 | 0.00 | 49 | 1020.8 |
| 20260502184549 | 13 | 25 | 8.0 | 20.9 | 0.00 | 0.00 | 0.00 | 50 | 1021.0 |
| 20260502183047 | 13 | 32 | 8.0 | 17.7 | 0.00 | 0.00 | 0.00 | 46 | 1021.1 |
| 20260502181553 | 13 | 15 | 9.7 | 22.5 | 0.00 | 0.00 | 0.00 | 48 | 1021.2 |
| 20260502163101 | 12 | 305 | 4.8 | 12.9 | 0.00 | 0.00 | 0.00 | 55 | 1021.4 |
| 20260502161555 | 11 | 8 | 3.2 | 6.4 | 0.00 | 0.00 | 0.00 | 55 | 1021.4 |
| 20260502151557 | 10 | 338 | 4.8 | 14.5 | 0.00 | 0.00 | 0.00 | 61 | 1021.5 |
| 20260502130111 | 5 | 0 | 0.0 | 0.0 | 0.00 | 0.00 | 0.00 | 68 | 1020.6 |
| 20260502123100 | 5 | 0 | 0.0 | 4.8 | 0.00 | 0.00 | 0.00 | 67 | 1020.4 |
| 20260502121552 | 4 | 201 | 1.6 | 6.4 | 0.00 | 0.00 | 0.00 | 68 | 1020.3 |
| 20260502114552 | 6 | 298 | 1.6 | 9.7 | 0.00 | 0.00 | 0.00 | 61 | 1020.1 |
| 20260502113050 | 7 | 39 | 6.4 | 9.7 | 0.00 | 0.00 | 0.00 | 60 | 1020.0 |
| 20260502111555 | 6 | 51 | 6.4 | 8.0 | 0.00 | 0.00 | 0.00 | 64 | 1019.7 |
| 20260502110052 | 5 | 333 | 1.6 | 4.8 | 0.00 | 0.00 | 0.00 | 66 | 1019.7 |
| 20260502104552 | 6 | 333 | 4.8 | 14.5 | 0.00 | 0.00 | 0.00 | 62 | 1019.7 |
| 20260502103048 | 10 | 50 | 12.9 | 24.1 | 0.00 | 0.00 | 0.00 | 50 | 1019.2 |
| 20260502101552 | 10 | 40 | 20.9 | 33.8 | 0.00 | 0.00 | 0.00 | 49 | 1018.2 |
| 20260502080104 | 12 | 308 | 9.7 | 19.3 | 0.00 | 0.00 | 0.00 | 40 | 1017.5 |
| 20260502070051 | 9 | 206 | 1.6 | 6.4 | 0.00 | 0.00 | 0.00 | 49 | 1017.0 |
| 20260502064551 | 8 | 193 | 3.2 | 4.8 | 0.00 | 0.00 | 0.00 | 52 | 1016.9 |
| 20260502063100 | 8 | 160 | 3.2 | 6.4 | 0.00 | 0.00 | 0.00 | 53 | 1017.0 |
| 20260502061551 | 8 | 158 | 4.8 | 6.4 | 0.00 | 0.00 | 0.00 | 54 | 1017.0 |
| 20260502060049 | 7 | 173 | 4.8 | 6.4 | 0.00 | 0.00 | 0.00 | 55 | 1016.9 |
| 20260502054551 | 7 | 157 | 3.2 | 4.8 | 0.00 | 0.00 | 0.00 | 56 | 1017.0 |
| 20260502053056 | 7 | 155 | 3.2 | 6.4 | 0.00 | 0.00 | 0.00 | 53 | 1017.1 |
| 20260502051551 | 9 | 151 | 1.6 | 6.4 | 0.00 | 0.00 | 0.00 | 46 | 1017.1 |
| 20260502050054 | 11 | 161 | 1.6 | 4.8 | 0.00 | 0.00 | 0.00 | 41 | 1017.0 |
| 20260502044553 | 10 | 143 | 3.2 | 4.8 | 0.00 | 0.00 | 0.00 | 43 | 1017.1 |
| 20260502043047 | 10 | 229 | 3.2 | 8.0 | 0.00 | 0.00 | 0.00 | 41 | 1017.0 |
| 20260502041558 | 10 | 203 | 3.2 | 4.8 | 0.00 | 0.00 | 0.00 | 40 | 1017.0 |
| 20260502040048 | 9 | 131 | 4.8 | 9.7 | 0.00 | 0.00 | 0.00 | 45 | 1016.8 |
| 20260502034551 | 9 | 155 | 3.2 | 4.8 | 0.00 | 0.00 | 0.00 | 47 | 1016.6 |
| 20260502033052 | 10 | 150 | 4.8 | 6.4 | 0.00 | 0.00 | 0.00 | 44 | 1016.4 |
| 20260502031549 | 12 | 135 | 0.0 | 6.4 | 0.00 | 0.00 | 0.00 | 37 | 1016.3 |
| 20260502030051 | 12 | 207 | 3.2 | 6.4 | 0.00 | 0.00 | 0.00 | 36 | 1016.4 |
| 20260502024549 | 15 | 212 | 3.2 | 4.8 | 0.00 | 0.00 | 0.00 | 32 | 1016.0 |
| 20260502023052 | 15 | 213 | 3.2 | 3.2 | 0.00 | 0.00 | 0.00 | 36 | 1016.1 |
| 20260502021554 | 15 | 80 | 0.0 | 3.2 | 0.00 | 0.00 | 0.00 | 39 | 1016.0 |
| 20260502020053 | 17 | 300 | 1.6 | 4.8 | 0.00 | 0.00 | 0.00 | 35 | 1015.9 |
| 20260502014553 | 18 | 213 | 0.0 | 1.6 | 0.00 | 0.00 | 0.00 | 31 | 1015.9 |